User: anonymous   Login
Location: Caltech
(34.1382°N, 118.1253°W)
Time: 04:39:06
(UTC-08:00)
Language:

FO-29 - Orbit

View from above orbital plane
View from above orbital plane
View from above satellite
View from above satellite

Ground track
Ground track

The orbit data is extracted from the following two-line orbital elements,

1 24278U 96046B   17054.21401215 -.00000038  00000-0  40419-6 0  9997
2 24278  98.5797 312.5451 0349326 272.6689  83.4519 13.53074773 13462
Epoch (UTC): 23 February 2017 05:08:10
Eccentricity: 0.0349326
inclination: 98.5797°
perigee height: 801 km
apogee height: 1321 km
right ascension of ascending node: 312.5451°
argument of perigee: 272.6689°
revolutions per day: 13.53074773
mean anomaly at epoch: 83.4519°
orbit number at epoch: 1346

The dashed part of the orbit path shows where the satellite is in the earth's shadow,  

DLR